This is the latest recevied weather packets stored in our database for station/object SR7U-1. If no packets are shown the sender has not sent any weather packets the latest 10 day(s).
| Time | Temp. | Humidity | Pressure | Rain* | Wind** | Luminosity | Snow |
|---|---|---|---|---|---|---|---|
| 1777603570 | 6.11° C | 53% | 1026.2 hPa | - | - | - | - |
| 1777602847 | 5.56° C | 56% | 1026.4 hPa | - | - | - | - |
| 1777602087 | 5° C | 56% | 1026.4 hPa | - | - | - | - |
| 1777601270 | 4.44° C | 55% | 1026.4 hPa | - | - | - | - |
| 1777600420 | 4.44° C | 62% | 1026.4 hPa | - | - | - | - |
| 1777599605 | 5° C | 52% | 1026.5 hPa | - | - | - | - |
| 1777598750 | 5° C | 51% | 1026.6 hPa | - | - | - | - |
| 1777597985 | 4.44° C | 51% | 1026.6 hPa | - | - | - | - |
| 1777597200 | 5.56° C | 51% | 1026.5 hPa | - | - | - | - |
| 1777596442 | 6.11° C | 48% | 1026.5 hPa | - | - | - | - |
| 1777595698 | 5.56° C | 56% | 1026.5 hPa | - | - | - | - |
| 1777594940 | 5.56° C | 56% | 1026.5 hPa | - | - | - | - |
| 1777594114 | 5.56° C | 48% | 1026.6 hPa | - | - | - | - |
| 1777593380 | 6.11° C | 46% | 1026.5 hPa | - | - | - | - |
| 1777592645 | 6.67° C | 48% | 1026.6 hPa | - | - | - | - |
| 1777591840 | 6.67° C | 50% | 1026.7 hPa | - | - | - | - |
| 1777591000 | 6.67° C | 50% | 1026.7 hPa | - | - | - | - |
| 1777590220 | 6.67° C | 47% | 1026.7 hPa | - | - | - | - |
| 1777589380 | 7.22° C | 49% | 1026.7 hPa | - | - | - | - |
| 1777588485 | 6.67° C | 42% | 1026.8 hPa | - | - | - | - |
| 1777587730 | 6.67° C | 47% | 1026.7 hPa | - | - | - | - |
| 1777586900 | 7.22° C | 47% | 1026.4 hPa | - | - | - | - |
| 1777586180 | 7.22° C | 43% | 1027 hPa | - | - | - | - |
| 1777585302 | 7.22° C | 44% | 1026.8 hPa | - | - | - | - |
| 1777584500 | 7.78° C | 39% | 1026.7 hPa | - | - | - | - |
* Rain since midnight (hover to see other rain measurements)
** Current wind speed in m/s (hover to see current wind gust speed)